Home   Weather   Bardufoss   Past weeks

Flag for Norway Past Weather in Bardufoss, Norway — Yesterday and Last 2 Weeks

Now
54 °F

Sprinkles. Passing clouds.


Feels Like: 51 °F
Forecast: 42 / 53 °F
Wind: 8 mph from Southeast

Location: Bardufoss

Current Time: Sep 28, 2016 at 7:04:31 PM

Latest Report: Sep 28, 2016 at 6:20 PM


Visibility: N/A

Pressure: 29.24 "Hg

Humidity: 77%

Dew Point: 46 °F

Location of BardufossLocation

Past Weather in Bardufoss — Graph

°F

Bardufoss Temperature Yesterday

Maximum temperature yesterday: 57 °F (at 12:50 PM)
Minimum temperature yesterday: 45 °F (at 5:50 AM)
Average temperature yesterday: 51 °F

High & Low Weather Summary for the Past Weeks

 TemperatureHumidityPressure
High100 °F (Sep 24, 4:50 AM)100% (Sep 21, 12:20 AM)30.27 "Hg (Sep 21, 12:20 AM)
Low28 °F (Sep 16, 6:20 AM)31% (Sep 16, 3:20 PM)29.24 "Hg (Sep 28, 5:20 PM)
Average51 °F81%30.05 "Hg
* Reported Sep 13 5:20 PM — Sep 28 5:50 PM, Bardufoss, Weather by CustomWeather, © 2016

Note: Actual official high and low records may vary slightly from our data, if they occured in-between our weather recording intervals... More about our weather records

Advertising

Bardufoss Weather History for the Previous 24 Hours

Scroll right to see more
 ConditionsComfort  
Time TempWeatherWind HumidityBarometerVisibility
5:50 PM
Wed, Sep 28
55 °FSprinkles. Partly sunny.10 mph67%29.24 "HgN/A
5:20 PM54 °FSprinkles. Partly sunny.10 mph77%29.24 "HgN/A
4:50 PM55 °FSprinkles. Partly sunny.10 mph72%29.27 "HgN/A
4:20 PM55 °FSprinkles. Partly sunny.13 mph67%29.27 "HgN/A
3:50 PM55 °FScattered showers. Partly sunny.12 mph67%29.27 "HgN/A
3:20 PM57 °FScattered showers. Partly sunny.13 mph63%29.27 "HgN/A
2:50 PM55 °FPartly sunny.13 mph63%29.30 "HgN/A
2:20 PM55 °FBroken clouds.12 mph63%29.30 "HgN/A
1:50 PM57 °FScattered showers. Broken clouds.9 mph55%29.33 "HgN/A
1:20 PM55 °FBroken clouds.14 mph63%29.33 "HgN/A
12:50 PM55 °FLight rain. Broken clouds.14 mph63%29.33 "HgN/A
12:20 PM55 °FScattered showers. Broken clouds.14 mph63%29.36 "HgN/A
11:50 AM55 °FBroken clouds.13 mph63%29.36 "HgN/A
11:20 AM55 °FBroken clouds.16 mph63%29.36 "HgN/A
10:50 AM55 °FBroken clouds.15 mph63%29.39 "HgN/A
10:20 AM55 °FBroken clouds.17 mph63%29.39 "HgN/A
9:50 AM55 °FBroken clouds.16 mph63%29.39 "HgN/A
9:20 AM55 °FScattered showers. Partly sunny.13 mph63%29.42 "HgN/A
8:50 AM54 °FBroken clouds.10 mph63%29.42 "HgN/A
8:20 AM54 °FBroken clouds.12 mph67%29.42 "HgN/A
7:50 AM43 °FBroken clouds.2 mph87%29.45 "HgN/A
7:20 AM41 °FPartly sunny.1 mph93%29.45 "HgN/A
6:50 AM41 °FPartly sunny.3 mph93%29.47 "HgN/A
6:20 AM43 °FPassing clouds.6 mph87%29.47 "HgN/A
5:50 AM43 °FPartly cloudy.No wind87%29.47 "HgN/A
5:20 AM41 °FPartly cloudy.2 mph93%29.50 "HgN/A
10:50 PM
Tue, Sep 27
45 °FPassing clouds.No wind93%29.74 "HgN/A
9:50 PM45 °FPassing clouds.2 mph100%29.77 "HgN/A
8:50 PM46 °FPassing clouds.1 mph100%29.80 "HgN/A
7:50 PM48 °FPassing clouds.No wind100%29.80 "HgN/A
Weather by CustomWeather, © 2016

See weather overviewHow to use our weather pages